Weather History for Manhattan, KS

Change the Weather History Date:

Saturday, August 3, 2013

  Actual Average Record
Temperature  
Mean Temperature 78 °F 79 °F  
Max Temperature 84 °F 91 °F 105 °F (2008)
Min Temperature 71 °F 67 °F 64 °F (1998)
Degree Days  
Heating Degree Days 0 0  
Month to date heating degree days 0 0  
Since 1 June heating degree days 12 12  
Since 1 July heating degree days 3 1  
Cooling Degree Days 13 14  
Month to date cooling degree days 37 42  
Year to date cooling degree days 884 848  
Since 1 June cooling degree days 748 748  
Growing Degree Days 26 (Base 50)    
Moisture  
Dew Point 70 °F    
Average Humidity 81    
Maximum Humidity 93    
Minimum Humidity 69    
Precipitation  
Precipitation 0.04 in 0.10 in 0.45 in (1999)
Month to date precipitation 1.92 0.28  
Year to date precipitation 19.04 20.54  
Sea Level Pressure  
Sea Level Pressure 30.02 in    
Wind  
Wind Speed 8 mph (ENE)    
Max Wind Speed 14 mph    
Max Gust Speed 20 mph    
Visibility 10 miles    
Events Rain    
T = Trace of Precipitation, MM = Missing Value Source: NWS Daily Summary

Daily Weather History Graph

Daily Weather History Graph

Search for Another Location

Airport:

Trip Planner

Search our weather history database for the weather conditions in past years. The results will help you decide how hot, cold, wet, or windy it might be!

Date:

Astronomy

Aug. 03, 2013 Rise Set
Actual Time 6:29 AM CDT 8:35 PM CDT
Civil Twilight 5:59 AM CDT 9:05 PM CDT
Nautical Twilight 5:23 AM CDT 9:41 PM CDT
Astronomical Twilight 4:43 AM CDT 10:20 PM CDT
Moon 3:39 AM CDT (8/3) 6:18 PM CDT (8/3)
Length of Visible Light 15h 05m
Length of Day
14h 06m
Waning Crescent, 9% of the Moon is Illuminated
Aug 3
Waning Crescent
Aug 6
New
Aug 14
First Quarter
Aug 20
Full
Aug 28
Last Quarter

Hourly Weather History & Observations

Time (CDT) Temp. Heat Index Dew Point Humidity Pressure Visibility Wind Dir Wind Speed Gust Speed Precip Events Conditions
12:11 AM 77.0 °F - 71.6 °F 83% 29.95 in 10.0 mi NE 9.2 mph - N/A   Mostly Cloudy
12:52 AM 77.0 °F - 72.0 °F 84% 29.94 in 10.0 mi SSW 11.5 mph 18.4 mph N/A   Overcast
1:29 AM 75.2 °F - 71.6 °F 89% 29.95 in 5.0 mi NNE 6.9 mph - 0.03 in Rain Rain
1:52 AM 75.9 °F - 72.0 °F 87% 29.90 in 10.0 mi NE 6.9 mph - 0.04 in Rain Light Rain
2:52 AM 75.0 °F - 72.0 °F 90% 29.91 in 8.0 mi NNE 4.6 mph - 0.00 in   Overcast
3:52 AM 73.9 °F - 72.0 °F 93% 29.92 in 7.0 mi ENE 6.9 mph - N/A   Partly Cloudy
4:52 AM 73.9 °F - 71.1 °F 91% 29.92 in 9.0 mi NE 5.8 mph - N/A   Partly Cloudy
5:52 AM 73.0 °F - 70.0 °F 90% 29.96 in 10.0 mi NE 6.9 mph - N/A   Partly Cloudy
6:43 AM 71.6 °F - 69.8 °F 94% 30.00 in 10.0 mi ENE 8.1 mph - N/A   Mostly Cloudy
6:52 AM 72.0 °F - 69.1 °F 91% 29.98 in 10.0 mi NE 8.1 mph - N/A   Overcast
7:39 AM 71.6 °F - 68.0 °F 88% 30.02 in 10.0 mi ENE 11.5 mph - N/A   Mostly Cloudy
7:52 AM 71.1 °F - 66.9 °F 87% 30.00 in 10.0 mi ENE 10.4 mph - N/A   Overcast
8:52 AM 71.1 °F - 66.9 °F 87% 30.01 in 10.0 mi ENE 9.2 mph - N/A   Overcast
9:52 AM 73.0 °F - 68.0 °F 84% 30.03 in 10.0 mi East 6.9 mph - N/A   Overcast
10:44 AM 73.4 °F - 69.8 °F 88% 30.06 in 10.0 mi ENE 11.5 mph - N/A   Overcast
10:52 AM 73.9 °F - 69.1 °F 85% 30.04 in 10.0 mi ENE 11.5 mph - N/A   Overcast
11:52 AM 75.9 °F - 70.0 °F 82% 30.04 in 10.0 mi ENE 11.5 mph - N/A   Overcast
12:52 PM 78.1 °F - 71.1 °F 79% 30.05 in 10.0 mi ENE 11.5 mph - N/A   Overcast
1:12 PM 78.8 °F - 71.6 °F 78% 30.08 in 10.0 mi ENE 11.5 mph - N/A   Overcast
1:52 PM 78.1 °F - 71.1 °F 79% 30.06 in 10.0 mi ENE 10.4 mph - N/A   Overcast
2:52 PM 81.0 °F 84.9 °F 71.1 °F 72% 30.05 in 10.0 mi East 12.7 mph - N/A   Overcast
3:12 PM 82.4 °F 87.2 °F 71.6 °F 70% 30.07 in 10.0 mi East 8.1 mph - N/A   Overcast
3:52 PM 82.0 °F 86.7 °F 72.0 °F 71% 30.04 in 10.0 mi NE 11.5 mph - N/A   Overcast
4:52 PM 82.0 °F 86.3 °F 71.1 °F 69% 30.04 in 10.0 mi ENE 9.2 mph - N/A   Overcast
5:27 PM 80.6 °F 84.6 °F 71.6 °F 74% 30.07 in 10.0 mi NE 11.5 mph - N/A   Overcast
5:52 PM 80.1 °F 83.2 °F 70.0 °F 71% 30.04 in 10.0 mi ENE 9.2 mph - N/A   Overcast
6:01 PM 80.6 °F 83.9 °F 69.8 °F 70% 30.07 in 10.0 mi ENE 10.4 mph - N/A   Overcast
6:52 PM 80.1 °F 83.2 °F 70.0 °F 71% 30.04 in 10.0 mi ENE 10.4 mph - N/A   Overcast
7:52 PM 79.0 °F - 71.1 °F 77% 30.03 in 10.0 mi East 6.9 mph - N/A   Clear
8:52 PM 77.0 °F - 71.1 °F 82% 30.04 in 10.0 mi ENE 3.5 mph - N/A   Clear
9:52 PM 75.0 °F - 70.0 °F 84% 30.07 in 10.0 mi Calm Calm - N/A   Clear
10:52 PM 75.0 °F - 71.1 °F 87% 30.09 in 10.0 mi NNE 6.9 mph - N/A   Overcast
11:52 PM 75.0 °F - 70.0 °F 84% 30.09 in 10.0 mi ENE 8.1 mph - N/A   Mostly Cloudy